NORTHEAST SUFFOLK  -  Air Quality Alert Air Quality Alert        NORTHERN NASSAU  -  Air Quality Alert Air Quality Alert        NORTHERN QUEENS  -  Air Quality Alert Air Quality Alert        NORTHWEST SUFFOLK  -  Air Quality Alert Air Quality Alert        SOUTHEAST SUFFOLK  -  Air Quality Alert Air Quality Alert        SOUTHERN NASSAU  -  Air Quality Alert Air Quality Alert        SOUTHERN QUEENS  -  Air Quality Alert Air Quality Alert        SOUTHWEST SUFFOLK  -  Air Quality Alert Air Quality Alert      

Active alerts

Northern Queens
  Details for Northern Queens Air Quality Alert
Southern Queens
  Details for Southern Queens Air Quality Alert
Northern Nassau
  Details for Northern Nassau Air Quality Alert
Southern Nassau
  Details for Southern Nassau Air Quality Alert
Northwest Suffolk
  Details for Northwest Suffolk Air Quality Alert
Southwest Suffolk
  Details for Southwest Suffolk Air Quality Alert
Northeast Suffolk
  Details for Northeast Suffolk Air Quality Alert
Southeast Suffolk
  Details for Southeast Suffolk Air Quality Alert


WXM80 ListenWXM80 Stop

You find our weather info also at:

UK Metoffice

WeatherCloud

Weather Underground

Northeastern Weather Network

AWEKAS

Citizen Weather Observer Program (CWOP)

HAMweather, WeatherForYou, PWS Weather


Weather Underground History page Text

Daily Summary for May 19, 2017 Units:  Metric    English   Both
« Previous Day
Next Day »
Daily Weekly Monthly Yearly Custom
  High: Low: Average:
Temperature: 35.1 °C 18.2 °C 27.1 °C
Dew Point: 23.7 °C 12.9 °C 19.6 °C
Humidity: 81 % 40 % 65 %
Wind Speed: 13.5 km/h 0 km/h 5.1 km/h
Wind Gust: 24.1 km/h - -
Wind:- - SW
Pressure: 1016.1 hPa 1008.4 hPa -
Precipitation: 3.05 mm    
Historical Graphs
 
 
Tabular Data for May 19, 2017
Time Temperature Dew Point Pressure Wind Wind Speed Wind Gust Humidity Rainfall Rate (Hourly)
00:02 26.1 °C 19.3 °C 1009 hPa SW 6.4 km/h 14.5 km/h 66 % 0 mm
00:07 26.1 °C 19.3 °C 1009 hPa SSW 7.1 km/h 7.1 km/h 66 % 0 mm
00:12 26.1 °C 19.3 °C 1009 hPa SW 7.9 km/h 18.5 km/h 66 % 0 mm
00:17 26.1 °C 19.3 °C 1009.4 hPa WSW 8.7 km/h 11.3 km/h 66 % 0 mm
00:22 26.1 °C 19.3 °C 1009.4 hPa SSW 8.2 km/h 16.7 km/h 66 % 0 mm
00:28 26.1 °C 19.3 °C 1009.4 hPa SW 9 km/h 13 km/h 66 % 0 mm
00:32 26.1 °C 19.3 °C 1009.4 hPa SSW 8.4 km/h 18.5 km/h 66 % 0 mm
00:36 26.1 °C 19.3 °C 1009.4 hPa WSW 7.6 km/h 18.5 km/h 66 % 0 mm
00:41 26.1 °C 19.3 °C 1009.4 hPa SSW 1.9 km/h 13 km/h 66 % 0 mm
00:46 26.2 °C 19.3 °C 1009.4 hPa SW 3.9 km/h 9.3 km/h 66 % 0 mm
00:51 26.2 °C 19.3 °C 1009.4 hPa West 3.5 km/h 11.1 km/h 66 % 0 mm
00:56 26.2 °C 19.3 °C 1009.4 hPa West 4.7 km/h 13 km/h 66 % 0 mm
01:01 26.2 °C 19.3 °C 1009.4 hPa SW 2.9 km/h 5.6 km/h 66 % 0 mm
01:06 26.2 °C 19.3 °C 1009.4 hPa WSW 6.1 km/h 7.4 km/h 66 % 0 mm
01:11 26.2 °C 19.3 °C 1009.4 hPa SW 7.7 km/h 9.3 km/h 66 % 0 mm
01:16 26.2 °C 19.3 °C 1009.4 hPa SSW 8.2 km/h 16.7 km/h 66 % 0 mm
01:21 26.2 °C 19.3 °C 1009.4 hPa SW 3.9 km/h 16.7 km/h 66 % 0 mm
01:26 26.2 °C 19.6 °C 1009.4 hPa SSW 5.5 km/h 11.1 km/h 67 % 0 mm
01:31 26.1 °C 19.5 °C 1009 hPa WSW 5.1 km/h 11.1 km/h 67 % 0 mm
01:36 26.1 °C 19.5 °C 1009 hPa SW 6.6 km/h 9.3 km/h 67 % 0 mm
01:41 26.1 °C 19.4 °C 1009 hPa SW 3.4 km/h 5.6 km/h 67 % 0 mm
01:46 26 °C 19.4 °C 1009 hPa SSW 4.3 km/h 5.6 km/h 67 % 0 mm
01:51 26 °C 19.4 °C 1009 hPa WSW 1.6 km/h 5.6 km/h 67 % 0 mm
01:56 25.9 °C 19.6 °C 1009 hPa SW 3.9 km/h 5.6 km/h 68 % 0 mm
02:01 25.8 °C 19.5 °C 1009 hPa SW 8.4 km/h 12.9 km/h 68 % 0 mm
02:06 25.8 °C 19.5 °C 1009 hPa West 5.8 km/h 13 km/h 68 % 0 mm
02:11 25.8 °C 19.4 °C 1009 hPa WSW 8 km/h 11.3 km/h 68 % 0 mm
02:16 25.8 °C 19.4 °C 1009 hPa WSW 6.3 km/h 16.7 km/h 68 % 0 mm
02:21 25.7 °C 19.6 °C 1009 hPa West 6 km/h 13 km/h 69 % 0 mm
02:26 25.7 °C 19.6 °C 1008.7 hPa SW 2.6 km/h 5.6 km/h 69 % 0 mm
02:31 25.7 °C 19.6 °C 1009 hPa South 3.4 km/h 9.7 km/h 69 % 0 mm
02:36 25.6 °C 19.5 °C 1008.7 hPa South 4.5 km/h 5.6 km/h 69 % 0 mm
02:41 25.6 °C 19.4 °C 1008.7 hPa SW 6 km/h 13 km/h 69 % 0 mm
02:46 25.5 °C 19.6 °C 1008.7 hPa SSW 7.9 km/h 12.9 km/h 70 % 0 mm
02:51 25.4 °C 19.6 °C 1009 hPa WSW 5.5 km/h 11.1 km/h 70 % 0 mm
02:56 25.4 °C 19.6 °C 1009 hPa SW 4.7 km/h 8 km/h 70 % 0 mm
03:01 25.4 °C 19.5 °C 1009 hPa WSW 3.2 km/h 5.6 km/h 70 % 0 mm
03:11 25.3 °C 19.7 °C 1009 hPa SSW 3.2 km/h 5.6 km/h 71 % 0 mm
03:16 25.3 °C 19.7 °C 1009 hPa SW 6.3 km/h 8 km/h 71 % 0 mm
03:17 25.2 °C 19.6 °C 1009 hPa SSW 6.3 km/h 7.4 km/h 71 % 0 mm
03:22 25.2 °C 19.6 °C 1009 hPa SSW 5 km/h 7.4 km/h 71 % 0 mm
03:27 25.1 °C 19.7 °C 1009 hPa SSW 6.6 km/h 9.3 km/h 72 % 0 mm
03:32 25 °C 19.6 °C 1009.4 hPa SSW 5 km/h 9.3 km/h 72 % 0 mm
03:37 24.9 °C 19.6 °C 1009.4 hPa WSW 2.4 km/h 11.1 km/h 72 % 0 mm
03:39 24.9 °C 19.6 °C 1009.4 hPa SW 6 km/h 11.1 km/h 72 % 0 mm
03:44 24.9 °C 19.7 °C 1009.4 hPa SSW 3.5 km/h 11.1 km/h 73 % 0 mm
03:49 24.8 °C 19.7 °C 1009.4 hPa SW 6.3 km/h 11.3 km/h 73 % 0 mm
03:54 24.8 °C 19.7 °C 1009.4 hPa SW 6.9 km/h 11.1 km/h 73 % 0 mm
03:59 24.8 °C 19.8 °C 1009 hPa WSW 4.5 km/h 5.6 km/h 74 % 0 mm
04:04 24.7 °C 19.8 °C 1009 hPa SSW 10 km/h 11.1 km/h 74 % 0 mm
04:09 24.7 °C 19.9 °C 1009 hPa SW 6.9 km/h 13 km/h 75 % 0 mm
04:14 24.6 °C 19.9 °C 1009 hPa SW 4.2 km/h 14.8 km/h 75 % 0 mm
04:19 24.6 °C 19.8 °C 1009 hPa SW 5.5 km/h 14.8 km/h 75 % 0 mm
04:24 24.5 °C 19.8 °C 1009 hPa SSW 3.7 km/h 7.4 km/h 75 % 0 mm
04:29 24.5 °C 19.8 °C 1009 hPa WSW 3.2 km/h 5.6 km/h 75 % 0 mm
04:34 24.4 °C 19.7 °C 1009 hPa WSW 2.4 km/h 9.7 km/h 75 % 0 mm
04:39 24.4 °C 19.7 °C 1009 hPa West 2.7 km/h 8 km/h 75 % 0 mm
04:44 24.4 °C 19.9 °C 1009.4 hPa SW 5 km/h 9.3 km/h 76 % 0 mm
04:49 24.3 °C 20 °C 1009.4 hPa West 8.9 km/h 18.5 km/h 77 % 0 mm
04:54 24.2 °C 19.9 °C 1009.4 hPa SW 5 km/h 9.7 km/h 77 % 0 mm
04:59 24.2 °C 19.9 °C 1009.4 hPa SW 5.5 km/h 7.4 km/h 77 % 0 mm
05:04 24.1 °C 19.8 °C 1009.4 hPa WSW 5 km/h 9.3 km/h 77 % 0 mm
05:09 24 °C 19.7 °C 1009.4 hPa WSW 3.2 km/h 5.6 km/h 77 % 0 mm
05:14 23.9 °C 19.9 °C 1009 hPa SSW 6.3 km/h 9.3 km/h 78 % 0 mm
05:19 23.9 °C 19.8 °C 1009.4 hPa WSW 5.5 km/h 8 km/h 78 % 0 mm
05:21 23.8 °C 19.8 °C 1009.4 hPa SW 5.3 km/h 9.3 km/h 78 % 0 mm
05:26 23.7 °C 19.7 °C 1009.4 hPa SW 2.6 km/h 5.6 km/h 78 % 0 mm
05:32 23.7 °C 19.8 °C 1009.4 hPa SSW 6.6 km/h 9.7 km/h 79 % 0 mm
05:37 23.6 °C 19.7 °C 1009.4 hPa SSW 5.3 km/h 5.6 km/h 79 % 0 mm
05:42 23.5 °C 19.8 °C 1009.4 hPa SW 1.3 km/h 11.1 km/h 80 % 0 mm
05:47 23.4 °C 19.8 °C 1009.4 hPa SSW 4.7 km/h 9.3 km/h 80 % 0 mm
05:52 23.3 °C 19.7 °C 1009.7 hPa SSW 8.4 km/h 13 km/h 80 % 0 mm
05:57 23.3 °C 19.9 °C 1009.4 hPa WSW 2.7 km/h 12.9 km/h 81 % 0 mm
06:02 23.3 °C 19.8 °C 1009.7 hPa SW 6.3 km/h 13 km/h 81 % 0 mm
06:07 23.3 °C 19.8 °C 1009.7 hPa SW 4.7 km/h 7.4 km/h 81 % 0 mm
06:12 23.3 °C 19.8 °C 1009.7 hPa WSW 6.4 km/h 7.4 km/h 81 % 0 mm
06:14 23.3 °C 19.8 °C 1009.7 hPa WSW 6.8 km/h 11.1 km/h 81 % 0 mm
06:19 23.3 °C 19.9 °C 1009.7 hPa WSW 6.9 km/h 9.7 km/h 81 % 0 mm
06:24 23.3 °C 19.9 °C 1010 hPa WSW 2.3 km/h 9.3 km/h 81 % 0 mm
06:29 23.4 °C 20 °C 1010 hPa WSW 4.5 km/h 6.4 km/h 81 % 0 mm
06:34 23.5 °C 19.8 °C 1010 hPa WSW 5.8 km/h 7.4 km/h 80 % 0 mm
06:39 23.6 °C 19.9 °C 1010 hPa SW 4 km/h 13 km/h 80 % 0 mm
06:44 23.8 °C 20.1 °C 1010 hPa SW 4.2 km/h 7.4 km/h 80 % 0 mm
06:49 23.9 °C 20.1 °C 1010 hPa SW 8.9 km/h 12.9 km/h 79 % 0 mm
06:54 24.1 °C 20.1 °C 1010 hPa SSW 7.1 km/h 14.8 km/h 78 % 0 mm
06:59 24.3 °C 20.1 °C 1010 hPa WSW 7.4 km/h 14.8 km/h 77 % 0 mm
07:04 24.6 °C 20.4 °C 1010 hPa WSW 6.3 km/h 8 km/h 78 % 0 mm
07:09 24.8 °C 20.3 °C 1010 hPa SSW 7.9 km/h 13 km/h 76 % 0 mm
07:14 25.1 °C 20.5 °C 1010 hPa WSW 6 km/h 9.7 km/h 76 % 0 mm
07:19 25.2 °C 20.5 °C 1010 hPa West 8 km/h 9.3 km/h 75 % 0 mm
07:25 25.4 °C 20.2 °C 1010 hPa SW 6.8 km/h 14.8 km/h 73 % 0 mm
07:29 25.7 °C 20.2 °C 1010 hPa West 7.4 km/h 13 km/h 72 % 0 mm
07:30 25.7 °C 20.3 °C 1010 hPa WSW 6.6 km/h 13 km/h 72 % 0 mm
07:35 25.9 °C 20.2 °C 1010 hPa West 5.8 km/h 13 km/h 71 % 0 mm
07:40 26 °C 20.3 °C 1010 hPa WSW 6.9 km/h 13 km/h 71 % 0 mm
07:45 26.1 °C 20.2 °C 1010 hPa SW 8 km/h 18.5 km/h 70 % 0 mm
07:50 26.2 °C 20.3 °C 1010 hPa SW 6.6 km/h 18.5 km/h 70 % 0 mm
07:55 26.3 °C 20.4 °C 1010 hPa WSW 6 km/h 18.5 km/h 70 % 0 mm
08:01 26.3 °C 20.4 °C 1010.4 hPa WSW 6.4 km/h 13 km/h 70 % 0 mm
08:06 26.4 °C 20.5 °C 1010 hPa WSW 11.3 km/h 20.9 km/h 70 % 0 mm
08:11 26.5 °C 20.6 °C 1010.4 hPa WSW 8 km/h 14.5 km/h 70 % 0 mm
08:16 26.6 °C 20.6 °C 1010.4 hPa WSW 8 km/h 19.3 km/h 70 % 0 mm
08:21 26.7 °C 20.7 °C 1010.4 hPa WSW 3.2 km/h 14.5 km/h 70 % 0 mm
08:26 26.8 °C 20.6 °C 1010.4 hPa West 4.8 km/h 12.9 km/h 69 % 0 mm
08:31 26.8 °C 20.7 °C 1010.7 hPa West 4.8 km/h 19.3 km/h 69 % 0 mm
08:36 26.9 °C 20.8 °C 1010.7 hPa West 4.8 km/h 14.5 km/h 69 % 0 mm
08:41 27 °C 20.6 °C 1010.7 hPa WSW 9.7 km/h 19.3 km/h 68 % 0 mm
08:46 27.1 °C 20.7 °C 1010.7 hPa WSW 8 km/h 14.5 km/h 68 % 0 mm
08:51 27.2 °C 20.6 °C 1010.7 hPa WSW 8 km/h 14.5 km/h 67 % 0 mm
08:56 27.3 °C 20.7 °C 1010.7 hPa WSW 8 km/h 14.5 km/h 67 % 0 mm
09:01 27.4 °C 20.5 °C 1010.7 hPa SSW 6.3 km/h 13 km/h 66 % 0 mm
09:06 27.6 °C 20.6 °C 1010.7 hPa WSW 8 km/h 20.9 km/h 66 % 0 mm
09:11 27.7 °C 20.7 °C 1010.7 hPa WSW 8 km/h 19.3 km/h 66 % 0 mm
09:16 27.8 °C 20.6 °C 1010.4 hPa WSW 4.8 km/h 14.5 km/h 65 % 0 mm
09:21 27.8 °C 20.4 °C 1010.4 hPa WSW 9.7 km/h 19.3 km/h 64 % 0 mm
09:26 28 °C 20.6 °C 1010.4 hPa WSW 6.9 km/h 14.8 km/h 64 % 0 mm
09:31 28.2 °C 20.7 °C 1010.4 hPa WSW 8 km/h 12.9 km/h 64 % 0 mm
09:36 28.4 °C 20.9 °C 1010.4 hPa WSW 3.2 km/h 12.9 km/h 64 % 0 mm
09:41 28.6 °C 20.6 °C 1010.4 hPa WSW 3.2 km/h 14.5 km/h 62 % 0 mm
09:46 28.9 °C 20.6 °C 1010 hPa WSW 8 km/h 19.3 km/h 61 % 0 mm
09:51 29.2 °C 20.6 °C 1010 hPa WSW 9.7 km/h 14.5 km/h 60 % 0 mm
09:56 29.5 °C 21.2 °C 1010 hPa WSW 4.8 km/h 14.5 km/h 61 % 0 mm
10:01 29.8 °C 20.6 °C 1010 hPa WNW 4.8 km/h 16.7 km/h 58 % 0 mm
10:06 30.1 °C 21.2 °C 1010 hPa WSW 1.8 km/h 3.7 km/h 59 % 0 mm
10:11 30.4 °C 21.8 °C 1010 hPa SW 6.9 km/h 9.3 km/h 60 % 0 mm
10:16 30.7 °C 20.7 °C 1010 hPa WSW 5.3 km/h 9.3 km/h 55 % 0 mm
10:21 31 °C 21.5 °C 1009.7 hPa WSW 3.5 km/h 9.3 km/h 57 % 0 mm
10:26 31.3 °C 21.4 °C 1010 hPa NW 4.2 km/h 7.4 km/h 56 % 0 mm
10:31 31.5 °C 21.1 °C 1010 hPa WNW 9.2 km/h 16.7 km/h 54 % 0 mm
10:36 31.7 °C 21.3 °C 1010 hPa West 9 km/h 13 km/h 54 % 0 mm
10:41 31.9 °C 20.8 °C 1010 hPa West 4.3 km/h 9.3 km/h 52 % 0 mm
10:46 32 °C 20.9 °C 1010 hPa SW 6 km/h 9.3 km/h 52 % 0 mm
10:51 32.2 °C 21.1 °C 1010 hPa West 13.5 km/h 18.5 km/h 52 % 0 mm
10:56 32.2 °C 20.5 °C 1010 hPa SW 6.8 km/h 18.5 km/h 50 % 0 mm
11:01 32.3 °C 20.8 °C 1010 hPa SW 3.9 km/h 9.7 km/h 51 % 0 mm
11:06 32.4 °C 21.3 °C 1010 hPa WSW 7.9 km/h 11.1 km/h 52 % 0 mm
11:11 32.6 °C 20.8 °C 1010 hPa WSW 5.6 km/h 12.9 km/h 50 % 0 mm
11:14 32.7 °C 20.9 °C 1010 hPa WNW 4.5 km/h 11.3 km/h 50 % 0 mm
11:19 32.8 °C 21 °C 1010 hPa West 5.3 km/h 13 km/h 50 % 0 mm
11:24 32.9 °C 20.8 °C 1010 hPa West 3.2 km/h 9.3 km/h 49 % 0 mm
11:29 33 °C 20.6 °C 1010 hPa SW 5.5 km/h 14.8 km/h 48 % 0 mm
11:34 33.1 °C 20.9 °C 1010 hPa WSW 3.7 km/h 16.7 km/h 49 % 0 mm
11:39 33.2 °C 20.7 °C 1010 hPa SW 5.6 km/h 18.5 km/h 48 % 0 mm
11:44 33.2 °C 20.7 °C 1010 hPa WNW 6.4 km/h 9.3 km/h 48 % 0 mm
11:49 33.3 °C 21.2 °C 1010 hPa West 4.5 km/h 9.3 km/h 49 % 0 mm
11:54 33.3 °C 20.8 °C 1010 hPa WSW 6 km/h 13 km/h 48 % 0 mm
11:59 33.4 °C 20.9 °C 1010 hPa SW 6.3 km/h 11.1 km/h 48 % 0 mm
12:04 33.6 °C 21.1 °C 1009.7 hPa SW 8.5 km/h 14.8 km/h 48 % 0 mm
12:09 33.7 °C 21.1 °C 1009.7 hPa WSW 7.6 km/h 13 km/h 48 % 0 mm
12:14 33.7 °C 20.8 °C 1009.7 hPa WSW 11.7 km/h 18.5 km/h 47 % 0 mm
12:19 33.8 °C 21.9 °C 1009.7 hPa SSW 4.3 km/h 8 km/h 50 % 0 mm
12:24 33.8 °C 20.6 °C 1009.7 hPa WSW 11.3 km/h 18.5 km/h 46 % 0 mm
12:29 33.8 °C 20.9 °C 1009.7 hPa West 9.3 km/h 11.3 km/h 47 % 0 mm
12:34 33.9 °C 21.3 °C 1009.4 hPa West 6.1 km/h 11.3 km/h 48 % 0 mm
12:40 33.9 °C 20 °C 1009.4 hPa West 6.4 km/h 13 km/h 44 % 0 mm
12:45 34 °C 21.1 °C 1009.4 hPa SSW 5 km/h 13 km/h 47 % 0 mm
12:50 34.1 °C 21.2 °C 1009.4 hPa West 5.5 km/h 9.3 km/h 47 % 0 mm
12:55 34.2 °C 20.6 °C 1009.4 hPa WNW 4.2 km/h 8 km/h 45 % 0 mm
13:00 34.3 °C 20.7 °C 1009.4 hPa SW 3.9 km/h 11.1 km/h 45 % 0 mm
13:05 34.4 °C 20 °C 1009.4 hPa SW 13.5 km/h 20.4 km/h 43 % 0 mm
13:10 34.4 °C 20.7 °C 1009.4 hPa SW 5.8 km/h 11.3 km/h 45 % 0 mm
13:15 34.4 °C 20.1 °C 1009.4 hPa WSW 6.9 km/h 13 km/h 43 % 0 mm
13:20 34.4 °C 20.1 °C 1009 hPa West 4.7 km/h 11.1 km/h 43 % 0 mm
13:25 34.4 °C 19.7 °C 1009 hPa SSW 5.6 km/h 14.8 km/h 42 % 0 mm
13:30 34.5 °C 20.8 °C 1009 hPa SW 7.1 km/h 14.5 km/h 45 % 0 mm
13:35 34.6 °C 20.5 °C 1009 hPa WSW 4.2 km/h 9.3 km/h 44 % 0 mm
13:40 34.7 °C 20.3 °C 1009 hPa West 3.9 km/h 5.6 km/h 43 % 0 mm
13:45 34.7 °C 19.6 °C 1008.7 hPa SSW 2.4 km/h 7.4 km/h 41 % 0 mm
13:50 34.8 °C 20 °C 1008.7 hPa SSW 10 km/h 18.5 km/h 42 % 0 mm
13:55 34.9 °C 21.9 °C 1008.7 hPa WNW 3.2 km/h 5.6 km/h 47 % 0 mm
14:00 34.9 °C 20.5 °C 1008.7 hPa SW 8.7 km/h 16.7 km/h 43 % 0 mm
14:05 35 °C 20.2 °C 1008.7 hPa WSW 9.2 km/h 20.4 km/h 42 % 0 mm
14:10 34.9 °C 20.1 °C 1008.7 hPa SW 7.7 km/h 13 km/h 42 % 0 mm
14:15 35 °C 19.8 °C 1008.7 hPa WNW 9.5 km/h 14.8 km/h 41 % 0 mm
14:21 35 °C 19.4 °C 1008.7 hPa WSW 9.7 km/h 19.3 km/h 40 % 0 mm
14:26 35.1 °C 19.4 °C 1008.7 hPa SW 9.7 km/h 14.5 km/h 40 % 0 mm
14:31 35 °C 19.4 °C 1008.7 hPa WSW 9.7 km/h 14.5 km/h 40 % 0 mm
14:36 34.8 °C 20 °C 1008.7 hPa West 3.2 km/h 9.7 km/h 42 % 0 mm
14:41 34.3 °C 20.3 °C 1008.7 hPa WSW 5.8 km/h 13 km/h 44 % 0 mm
14:46 33.8 °C 20.6 °C 1008.7 hPa NNW 4.8 km/h 14.5 km/h 46 % 0 mm
14:51 33.1 °C 19.9 °C 1008.7 hPa NW 1.9 km/h 5.6 km/h 46 % 0 mm
14:56 32.5 °C 19.7 °C 1008.7 hPa NNW 1.6 km/h 12.9 km/h 47 % 0 mm
15:01 32.2 °C 19.8 °C 1008.7 hPa WNW 4.5 km/h 7.4 km/h 48 % 0 mm
15:06 31.9 °C 19.5 °C 1008.7 hPa WNW 3.2 km/h 5.6 km/h 48 % 0 mm
15:11 31.6 °C 20.2 °C 1008.7 hPa Calm   4.8 km/h 51 % 0 mm
15:16 31.3 °C 19.9 °C 1008.7 hPa NW 1.6 km/h 6.4 km/h 51 % 0 mm
15:19 31.2 °C 20.2 °C 1008.4 hPa WNW 0.6 km/h 3.7 km/h 52 % 0 mm
15:24 31.1 °C 19.8 °C 1008.4 hPa WNW 2.1 km/h 5.6 km/h 51 % 0 mm
15:29 31.2 °C 21.1 °C 1008.4 hPa WNW 1.4 km/h 5.6 km/h 55 % 0 mm
15:34 31.4 °C 20.7 °C 1008.4 hPa NW 3.1 km/h 6.4 km/h 53 % 0 mm
15:39 31.6 °C 21.2 °C 1008.4 hPa WNW 0.8 km/h 3.7 km/h 54 % 0 mm
15:44 31.9 °C 21.5 °C 1008.4 hPa North 2.9 km/h 5.6 km/h 54 % 0 mm
15:49 32.3 °C 19.9 °C 1008.4 hPa WNW 6 km/h 6.4 km/h 48 % 0 mm
15:54 32.7 °C 20.9 °C 1008.4 hPa NW 0.5 km/h 5.6 km/h 50 % 0 mm
15:59 33 °C 20.6 °C 1008.4 hPa NW 5.3 km/h 7.4 km/h 48 % 0 mm
16:04 33.2 °C 20.7 °C 1008.4 hPa NW 2.1 km/h 8 km/h 48 % 0 mm
16:09 33.3 °C 20.4 °C 1008.4 hPa North 5.5 km/h 11.1 km/h 47 % 0 mm
16:14 33 °C 20.2 °C 1008.7 hPa NNW 3.7 km/h 13 km/h 47 % 0 mm
16:19 32.6 °C 19.4 °C 1008.7 hPa NNW 6.1 km/h 14.5 km/h 46 % 0 mm
16:24 31.8 °C 20.1 °C 1009 hPa NW 3.4 km/h 7.4 km/h 50 % 0 mm
16:29 31.3 °C 20 °C 1009.7 hPa NW 7.2 km/h 11.1 km/h 51 % 0 mm
16:34 30.3 °C 21.9 °C 1009.4 hPa WNW 7.7 km/h 11.1 km/h 61 % 3.05 mm
16:39 29.4 °C 22.4 °C 1009.4 hPa WNW 1.9 km/h 11.1 km/h 66 % 3.05 mm
16:45 28.7 °C 22.4 °C 1009 hPa WNW 0.2 km/h 3.7 km/h 69 % 3.05 mm
16:50 28.3 °C 23 °C 1009 hPa WNW 0.6 km/h 1.9 km/h 73 % 3.05 mm
16:55 28 °C 23.4 °C 1009 hPa WNW 1.1 km/h 3.7 km/h 76 % 3.05 mm
17:00 27.8 °C 23.6 °C 1008.7 hPa WNW 2.3 km/h 5.6 km/h 78 % 3.05 mm
17:05 27.6 °C 23.6 °C 1008.7 hPa WSW 2.1 km/h 5.6 km/h 79 % 3.05 mm
17:10 27.4 °C 23.2 °C 1008.7 hPa Calm   1.9 km/h 78 % 3.05 mm
17:15 27.3 °C 23.5 °C 1008.7 hPa Calm   1.9 km/h 80 % 3.05 mm
17:20 27.3 °C 23.7 °C 1008.7 hPa Calm   1.9 km/h 81 % 3.05 mm
17:25 27.2 °C 23.6 °C 1008.7 hPa Calm   3.7 km/h 81 % 3.05 mm
17:35 27.1 °C 23.3 °C 1008.7 hPa Calm   1.9 km/h 80 % 0 mm
17:40 27.1 °C 23.3 °C 1008.7 hPa WSW 0.3 km/h 1.6 km/h 80 % 0 mm
17:44 27.1 °C 23.3 °C 1008.7 hPa WSW 0.3 km/h 1.9 km/h 80 % 0 mm
17:49 27 °C 23.1 °C 1009 hPa Calm   1.9 km/h 79 % 0 mm
17:54 27 °C 23.1 °C 1008.7 hPa Calm     79 % 0 mm
17:59 27.1 °C 23.3 °C 1008.7 hPa Calm     80 % 0 mm
18:04 27.1 °C 23.1 °C 1009 hPa Calm     79 % 0 mm
18:09 27.1 °C 23.3 °C 1008.7 hPa Calm     80 % 0 mm
18:14 27.1 °C 23.3 °C 1008.7 hPa Calm     80 % 0 mm
18:19 27.2 °C 23.2 °C 1009 hPa Calm     79 % 0 mm
18:24 27.2 °C 23 °C 1009 hPa Calm     78 % 0 mm
18:29 27.2 °C 23 °C 1009 hPa WSW 0.8 km/h 1.9 km/h 78 % 0 mm
18:34 27.2 °C 22.6 °C 1009 hPa Calm     76 % 0 mm
18:39 27.2 °C 22.6 °C 1009 hPa Calm     76 % 0 mm
18:44 27.3 °C 22.4 °C 1009 hPa Calm     75 % 0 mm
18:50 27.3 °C 22.2 °C 1009 hPa Calm     74 % 0 mm
18:55 27.3 °C 22.2 °C 1009 hPa Calm     74 % 0 mm
19:00 27.3 °C 22 °C 1009 hPa Calm     73 % 0 mm
19:05 27.2 °C 22.2 °C 1009 hPa Calm     74 % 0 mm
19:10 27.2 °C 22.3 °C 1009.4 hPa Calm     75 % 0 mm
19:15 27.1 °C 22.3 °C 1009.4 hPa Calm     75 % 0 mm
19:20 27 °C 22.2 °C 1009.4 hPa Calm     75 % 0 mm
19:25 26.9 °C 22.3 °C 1009.4 hPa Calm     76 % 0 mm
19:30 26.8 °C 22.4 °C 1009.4 hPa Calm     77 % 0 mm
19:35 26.7 °C 22.3 °C 1009.7 hPa WSW 1 km/h 3.7 km/h 77 % 0 mm
19:40 26.6 °C 22.2 °C 1009.7 hPa Calm     77 % 0 mm
19:45 26.3 °C 20.7 °C 1010 hPa West 10 km/h 24.1 km/h 71 % 0 mm
19:46 26.3 °C 20.6 °C 1010 hPa NW 7.2 km/h 11.1 km/h 71 % 0 mm
19:51 26 °C 19.6 °C 1010.7 hPa North 4.8 km/h 11.1 km/h 68 % 0 mm
19:56 25.8 °C 19.5 °C 1010.7 hPa NNE 9 km/h 17.7 km/h 68 % 0 mm
20:01 25.2 °C 17.9 °C 1010.4 hPa NNE 11.4 km/h 18.5 km/h 64 % 0 mm
20:06 24.7 °C 18.2 °C 1010.7 hPa NNE 7.6 km/h 14.8 km/h 67 % 0 mm
20:11 24.2 °C 17.4 °C 1010.7 hPa North 8.7 km/h 13 km/h 66 % 0 mm
20:16 23.8 °C 17.3 °C 1011.1 hPa ENE 2.4 km/h 5.6 km/h 67 % 0 mm
20:21 23.6 °C 17.3 °C 1011.7 hPa Calm   1.9 km/h 68 % 0 mm
20:26 23.4 °C 17.2 °C 1012.1 hPa NE 0.3 km/h   68 % 0 mm
20:31 23.2 °C 16.7 °C 1012.1 hPa ENE 3.5 km/h 9.3 km/h 67 % 0 mm
20:36 22.9 °C 16.5 °C 1012.1 hPa North 1.6 km/h 13 km/h 67 % 0 mm
20:42 22.7 °C 16.2 °C 1012.1 hPa North 1.1 km/h 7.4 km/h 67 % 0 mm
20:47 22.4 °C 16 °C 1012.4 hPa ENE 0.6 km/h 7.4 km/h 67 % 0 mm
20:52 22.3 °C 16.1 °C 1012.4 hPa NNE 2.6 km/h 6.4 km/h 68 % 0 mm
20:57 22.2 °C 15.7 °C 1012.8 hPa North 0.5 km/h 1.9 km/h 67 % 0 mm
21:02 22 °C 15.8 °C 1013.1 hPa North 3.4 km/h 6.4 km/h 68 % 0 mm
21:07 21.9 °C 15.5 °C 1013.1 hPa North 1.3 km/h 3.7 km/h 67 % 0 mm
21:12 21.7 °C 15.5 °C 1013.1 hPa NE 1.9 km/h 5.6 km/h 68 % 0 mm
21:17 21.5 °C 15.1 °C 1013.4 hPa NNE 8.5 km/h 16.7 km/h 67 % 0 mm
21:20 21.4 °C 15.2 °C 1013.4 hPa North 6.4 km/h 9.7 km/h 68 % 0 mm
21:25 21.2 °C 15.1 °C 1013.8 hPa NNE 5.6 km/h 8 km/h 68 % 0 mm
21:30 21.1 °C 14.9 °C 1013.8 hPa North 5.6 km/h 8 km/h 68 % 0 mm
21:35 20.9 °C 14.6 °C 1013.8 hPa North 6.3 km/h 11.1 km/h 67 % 0 mm
21:40 20.9 °C 14.8 °C 1013.8 hPa NNE 5.6 km/h 7.4 km/h 68 % 0 mm
21:45 20.8 °C 14.9 °C 1013.8 hPa NNW 2.9 km/h 5.6 km/h 69 % 0 mm
21:50 20.7 °C 15 °C 1013.8 hPa North 5.3 km/h 7.4 km/h 70 % 0 mm
21:55 20.6 °C 15.1 °C 1014.1 hPa North 6 km/h 7.4 km/h 71 % 0 mm
22:00 20.4 °C 15 °C 1014.1 hPa North 5.5 km/h 9.7 km/h 71 % 0 mm
22:05 20.3 °C 15.1 °C 1014.1 hPa NNW 8.4 km/h 13 km/h 72 % 0 mm
22:10 20.2 °C 14.7 °C 1014.4 hPa North 8.2 km/h 16.7 km/h 71 % 0 mm
22:15 20 °C 14.1 °C 1014.4 hPa NNE 6.9 km/h 9.3 km/h 69 % 0 mm
22:20 19.8 °C 13.8 °C 1014.4 hPa NNE 7.1 km/h 13 km/h 68 % 0 mm
22:25 19.8 °C 13.9 °C 1014.8 hPa North 8.2 km/h 12.9 km/h 69 % 0 mm
22:30 19.7 °C 13.7 °C 1014.4 hPa North 9.7 km/h 14.8 km/h 68 % 0 mm
22:36 19.7 °C 13.6 °C 1014.8 hPa North 4.5 km/h 9.3 km/h 68 % 0 mm
22:41 19.6 °C 13.6 °C 1014.8 hPa North 4.8 km/h 12.9 km/h 68 % 0 mm
22:46 19.6 °C 13.4 °C 1014.8 hPa NNE 4.8 km/h 16.1 km/h 68 % 0 mm
22:51 19.4 °C 13.6 °C 1014.8 hPa NNE 8 km/h 12.9 km/h 69 % 0 mm
22:56 19.4 °C 13.6 °C 1015.1 hPa NNE 8 km/h 14.5 km/h 69 % 0 mm
23:01 19.3 °C 13.5 °C 1015.1 hPa NNE 8.5 km/h 11.3 km/h 69 % 0 mm
23:06 19.2 °C 13.2 °C 1015.1 hPa NE 7.7 km/h 13 km/h 68 % 0 mm
23:11 19.2 °C 12.9 °C 1015.1 hPa NE 8.7 km/h 14.8 km/h 67 % 0 mm
23:16 19.1 °C 13.1 °C 1015.5 hPa North 6.3 km/h 14.8 km/h 68 % 0 mm
23:21 19.1 °C 13 °C 1015.5 hPa NNE 9.2 km/h 13 km/h 68 % 0 mm
23:26 18.9 °C 13.1 °C 1015.5 hPa NNW 6.9 km/h 13 km/h 69 % 0 mm
23:31 18.8 °C 13.2 °C 1015.5 hPa North 10.8 km/h 16.7 km/h 70 % 0 mm
23:36 18.7 °C 13.3 °C 1015.5 hPa NNE 10.6 km/h 16.7 km/h 71 % 0 mm
23:41 18.5 °C 13.2 °C 1015.8 hPa NNW 6.9 km/h 16.7 km/h 71 % 0 mm
23:46 18.4 °C 13.3 °C 1016.1 hPa NNE 8.2 km/h 13 km/h 72 % 0 mm
23:51 18.3 °C 13.4 °C 1016.1 hPa NE 9.2 km/h 14.5 km/h 73 % 0 mm
23:56 18.2 °C 13.2 °C 1016.1 hPa North 8.4 km/h 12.9 km/h 73 % 0 mm
Crab Meadow Weather
Compliments of Weather Underground - 3 mb

Script developed by  Jim McMurry - jmcmurry@mwt.net Adapted for the template by  Wim van der Kuil - Leuven-Template.eu

Astronomy: The Sun is around 4.5 billion years old.